Starlink 30494

operational
NORAD ID: 57970 Int'l Des: 2023-151 Owner: SPXS Country: US Constellation: starlink
LEOCIRCULAR

Starlink 30494について

説明を読み込み中...

リアルタイム位置

3D地球を読み込み中...

次回通過

高度履歴

Altitude vs Time

uPlot chart will show altitude changes over time

軌道要素

1 57970U 23151G 25304.21075858 .00133730 00000-0 65978-3 0 9995
2 57970 42.9833 237.8145 0000480 330.4091 29.6753 15.80947402117248
Epoch: Oct 31, 2025 • Age: 9 hours

現在のステータス

高度 326.3 km
速度 7.72 km/s
衛星直下点 10.26°N, 6.8°W
打ち上げ日 Sep 30, 2023
運用期間 2 years
タイプ internet

技術仕様

分類 Payload
質量 730.00 kg
乾燥質量 700.00 kg
総質量 730.00 kg
長さ 0.30 m
直径 4.10 m
スパン 29.00 m
形状 Box + pan
製造者 SPXS
バスタイプ Starlink V2M
フェーズステータス In Orbit
所有者/国 SPXS/US

大規模コンステレーション

Loading constellations...